This demonstration page uses our WeatherBlox Daily Observations layout. Learn more.

39.29038, -76.61219

Hourly Observations for September 14, 2019

Temp ( °F °C ) Dew Point ( °F °C ) Humidity (%) Winds ( mph kmh ) Pressure ( in mb ) Visibility ( mi km ) Precip ( " mm )
12:54 am 00:54 undefined 68 20 59 15 73 73 undefined N/A 30.36 1028 N/A 0 0
1:54 am 01:54 undefined 67 19.4 59 15 76 76 undefined N/A 30.34 1028 N/A 0 0
2:54 am 02:54 undefined 67 19.4 59 15 76 76 undefined N/A 30.32 1027 N/A 0 0
3:54 am 03:54 undefined 67 19.4 60 15.6 79 79 undefined N/A 30.31 1026 N/A 0 0
4:54 am 04:54 undefined 67 19.4 60 15.6 79 79 undefined N/A 30.3 1026 N/A 0 0
5:54 am 05:54 undefined 67 19.4 60 15.6 79 79 undefined N/A 30.3 1026 N/A 0 0
6:54 am 06:54 undefined 67 19.4 60 15.6 79 79 undefined N/A 30.3 1026 N/A 0 0
7:54 am 07:54 undefined 68 20 61 16.1 78 78 undefined N/A 30.31 1027 N/A 0 0
8:54 am 08:54 undefined 71 21.7 62 16.7 73 73 undefined N/A 30.31 1026 N/A 0 0
9:54 am 09:54 undefined 72 22.2 63 17.2 73 73 undefined N/A 30.31 1027 N/A 0 0
10:54 am 10:54 undefined 75 23.9 64 17.8 69 69 undefined N/A 30.29 1026 N/A 0 0
11:54 am 11:54 undefined 77 25 65 18.3 66 66 undefined N/A 30.27 1025 N/A 0 0
12:54 pm 12:54 undefined 78 25.6 64 17.8 62 62 undefined N/A 30.24 1024 N/A 0 0
1:54 pm 13:54 undefined 78 25.6 64 17.8 62 62 undefined N/A 30.22 1024 N/A 0 0
2:54 pm 14:54 undefined 79 26.1 65 18.3 62 62 undefined N/A 30.2 1023 N/A 0 0
3:54 pm 15:54 undefined 79 26.1 65 18.3 62 62 undefined N/A 30.19 1022 N/A 0 0
4:54 pm 16:54 undefined 80 26.7 66 18.9 62 62 undefined N/A 30.17 1022 N/A 0 0
5:54 pm 17:54 undefined 79 26.1 67 19.4 67 67 undefined N/A 30.17 1022 N/A 0 0
6:54 pm 18:54 undefined 78 25.6 67 19.4 69 69 undefined N/A 30.16 1021 N/A 0 0
7:54 pm 19:54 undefined 77 25 67 19.4 71 71 undefined N/A 30.17 1022 N/A 0 0
8:54 pm 20:54 undefined 77 25 68 20 74 74 undefined N/A 30.18 1022 N/A 0 0
9:54 pm 21:54 undefined 77 25 68 20 74 74 undefined N/A 30.18 1022 N/A 0 0
10:54 pm 22:54 undefined 76 24.4 69 20.6 79 79 undefined N/A 30.17 1022 N/A 0 0
11:54 pm 23:54 undefined 76 24.4 68 20 77 77 undefined N/A 30.16 1021 N/A 0 0

Powered by AerisWeather